COSMOS 2251 DEB, 33766

Orbit data source: Space-Track

COSMOS 2251 DEB, 33766 is space debris in LEO originally from a launch on Wed, 16 Jun 1993 UTC launched from the Plesetsk Missile And Space Complex (PKMTR). The debris from Iridium 33, an American commercial communications satellite, has been tracked extensively since its accidental collision with the defunct Russian satellite Cosmos 2251 in 2009. This event, occurring at high speed in low Earth orbit (LEO), generated thousands of pieces of space debris, significantly increasing the risk of further collisions. The Iridium 33 debris cloud has impacted space traffic management and orbital debris mitigation strategies, making it a subject of ongoing study in space situational awareness.

Loading next visibility...
Identifier
33766, 1993-036P
Orbit
LEO
Country
Flag of CISCIS
Related business
Manufacturer
Unknown
Mission
Spacecraft
Bus & Motor
Unknown
Mass
Unknown
Launch date (UTC)
1993-06-16 (33 years ago)
Launch vehicle
Unknown
Launch site
Plesetsk Missile And Space Complex (PKMTR)
Object type
Payload
Rocket body
Debris
Shape & HBR
Unknown shape, 0.4 m
Radar Cross Section
Medium (>0.1 m² and <1 m²)

Expand to show TLE details & history
Last TLE update: 13 hours ago

TLE from 13 hours ago
0 COSMOS 2251 DEB
1 33766U 93036P   26237.80576516  .00001230  00000-0  42516-3 0  9991
2 33766  74.1864  29.6601 0062699 160.3476 200.0116 14.35647595914193
Epoch: 2026-08-25T19:20Z
TLE epoch observation values (Epoch: 2026-08-25T19:20:18.109Z)
Latitude
Longitude
125.51681°
Altitude
817.704 km
Speed
7.423 km/s
True Right ascension
01h 58m 38s
True Declination
0° 00' 00"
Sunlit
Object was in full shadow at epoch
Visualization orbit readout
Latitude
Unknown
Longitude
Unknown
Altitude
Unknown
Speed
Unknown
Apparent Right ascension
Unknown
Apparent Declination
Unknown
Sunlit
N/A
Visualization observer readout
Local Sidereal Time
23:41:46
Azimuth
Unknown
Elevation
Unknown
Doppler factor
Unknown
Orbital elements
Apogee altitude
815.348 km
Perigee altitude
725.705 km
Semi-major axis
7,148.664 km
Eccentricity
0.00627
Inclination
74.1864°
RAAN
29.6601°
Arg. of periapsis
160.3476°
True anomaly
199.76753°
Mean anomaly
200.0116°
Eccentric anomaly
199.88939°
Mean motion
3.59092 °/min
Orbital period
100.25 mins
BSTAR
0.00042516
Loading maneuver chart data...
Computing Atmospheric mass density...
Loading historical data...
Loading historical data...
Loading historical data...
Loading historical data...
Loading historical data...
Loading historical data...
Loading historical data...

Documentation

Showing up to 5 results
|